TimeEDT,TemperatureF,Dew PointF,Humidity,Sea Level PressureIn,VisibilityMPH,Wind Direction,Wind SpeedMPH,Gust SpeedMPH,PrecipitationIn,Events,Conditions,WindDirDegrees,DateUTC
12:56 AM,24.1,17.1,75,29.98,10.0,WNW,9.2,16.1,N/A,,Overcast,300,2013-03-22 04:56:00
1:56 AM,24.1,15.1,69,29.98,10.0,West,9.2,18.4,N/A,,Overcast,280,2013-03-22 05:56:00
2:56 AM,24.1,16.0,71,29.98,10.0,WNW,9.2,-,N/A,,Overcast,300,2013-03-22 06:56:00
3:09 AM,24.8,15.8,69,29.94,10.0,WNW,9.2,-,N/A,,Overcast,300,2013-03-22 07:09:00
3:56 AM,24.1,16.0,71,29.98,10.0,WNW,8.1,-,N/A,,Overcast,300,2013-03-22 07:56:00
4:56 AM,25.0,16.0,69,29.98,10.0,WNW,8.1,-,N/A,,Overcast,290,2013-03-22 08:56:00
5:56 AM,25.0,16.0,69,29.99,10.0,West,6.9,-,N/A,,Overcast,280,2013-03-22 09:56:00
6:56 AM,25.0,17.1,72,30.00,10.0,West,6.9,-,N/A,,Overcast,280,2013-03-22 10:56:00
7:56 AM,25.0,17.1,72,30.00,10.0,WNW,8.1,-,N/A,,Overcast,290,2013-03-22 11:56:00
8:56 AM,26.1,18.0,71,30.01,10.0,West,9.2,-,N/A,,Overcast,280,2013-03-22 12:56:00
9:34 AM,28.4,17.6,64,29.97,10.0,NW,9.2,-,N/A,,Overcast,310,2013-03-22 13:34:00
9:56 AM,28.0,17.1,63,30.01,10.0,WNW,10.4,-,N/A,,Overcast,300,2013-03-22 13:56:00
10:56 AM,28.0,16.0,61,30.01,10.0,West,11.5,17.3,N/A,,Overcast,280,2013-03-22 14:56:00
11:56 AM,32.0,18.0,56,30.01,10.0,WNW,10.4,-,N/A,,Overcast,300,2013-03-22 15:56:00
12:34 PM,33.8,19.4,56,29.97,10.0,WNW,13.8,18.4,N/A,,Overcast,300,2013-03-22 16:34:00
12:56 PM,35.1,19.0,52,30.00,10.0,NW,10.4,-,N/A,,Scattered Clouds,320,2013-03-22 16:56:00
1:56 PM,35.1,19.0,52,30.00,10.0,WNW,11.5,18.4,N/A,,Scattered Clouds,300,2013-03-22 17:56:00
2:56 PM,39.9,21.0,47,29.98,10.0,NW,8.1,-,N/A,,Mostly Cloudy,320,2013-03-22 18:56:00
3:56 PM,39.9,19.9,45,29.97,10.0,NNW,9.2,16.1,N/A,,Partly Cloudy,330,2013-03-22 19:56:00
4:56 PM,39.0,19.9,46,29.96,10.0,West,8.1,-,N/A,,Partly Cloudy,270,2013-03-22 20:56:00
5:56 PM,37.0,19.9,50,29.97,10.0,WNW,6.9,-,N/A,,Scattered Clouds,300,2013-03-22 21:56:00
6:56 PM,35.1,21.0,57,29.99,10.0,NW,10.4,-,N/A,,Partly Cloudy,310,2013-03-22 22:56:00
7:56 PM,30.9,21.0,67,30.02,10.0,WNW,11.5,-,N/A,,Scattered Clouds,300,2013-03-22 23:56:00
8:56 PM,28.9,21.0,72,30.04,10.0,West,8.1,-,N/A,,Clear,280,2013-03-23 00:56:00
9:56 PM,28.0,19.9,72,30.05,10.0,West,5.8,-,N/A,,Clear,280,2013-03-23 01:56:00
10:56 PM,26.1,19.0,75,30.04,10.0,WNW,5.8,-,N/A,,Clear,300,2013-03-23 02:56:00